| time (UTC) | temp C | wind direction | speed KPH | gust KPH | rain 1hr cm | rain 24hr cm | rain mn cm | humidity % | barometer mb |
| 20260504081522 | 11 | 222 | 9.7 | 17.7 | 0.00 | 0.00 | 0.00 | 56 | 1000.6 |
| 20260504060120 | 12 | 246 | 12.9 | 17.7 | 0.00 | 0.00 | 0.00 | 50 | 1002.6 |
| 20260504044545 | 13 | 238 | 8.0 | 14.5 | 0.00 | 0.00 | 0.00 | 47 | 1003.9 |
| 20260504043040 | 13 | 238 | 4.8 | 11.3 | 0.00 | 0.00 | 0.00 | 45 | 1004.1 |
| 20260504041537 | 13 | 232 | 4.8 | 9.7 | 0.00 | 0.00 | 0.00 | 45 | 1004.5 |
| 20260504040036 | 13 | 215 | 3.2 | 9.7 | 0.00 | 0.00 | 0.00 | 44 | 1004.8 |
| 20260504034535 | 14 | 214 | 3.2 | 8.0 | 0.00 | 0.00 | 0.00 | 44 | 1004.9 |
| 20260504033038 | 13 | 213 | 3.2 | 8.0 | 0.00 | 0.00 | 0.00 | 46 | 1005.1 |
| 20260504031532 | 15 | 195 | 4.8 | 6.4 | 0.00 | 0.00 | 0.00 | 43 | 1005.4 |
| 20260504030031 | 16 | 218 | 3.2 | 6.4 | 0.00 | 0.00 | 0.00 | 40 | 1005.5 |
| 20260504024529 | 16 | 205 | 3.2 | 6.4 | 0.00 | 0.00 | 0.00 | 38 | 1005.4 |
| 20260504023030 | 16 | 218 | 3.2 | 6.4 | 0.00 | 0.00 | 0.00 | 37 | 1005.4 |
| 20260504021530 | 17 | 310 | 1.6 | 3.2 | 0.00 | 0.00 | 0.00 | 35 | 1005.3 |
| 20260504020031 | 17 | 311 | 1.6 | 3.2 | 0.00 | 0.00 | 0.00 | 34 | 1005.3 |
| 20260504014541 | 18 | 311 | 0.0 | 3.2 | 0.00 | 0.00 | 0.00 | 35 | 1005.2 |
| 20260504013027 | 18 | 311 | 0.0 | 3.2 | 0.00 | 0.00 | 0.00 | 35 | 1005.3 |
| 20260504011526 | 18 | 312 | 1.6 | 4.8 | 0.00 | 0.00 | 0.00 | 35 | 1005.5 |
| 20260504010024 | 18 | 312 | 4.8 | 6.4 | 0.00 | 0.00 | 0.00 | 34 | 1005.6 |
| 20260504004523 | 19 | 314 | 6.4 | 9.7 | 0.00 | 0.00 | 0.00 | 33 | 1005.6 |
| 20260504003023 | 20 | 314 | 6.4 | 14.5 | 0.00 | 0.00 | 0.00 | 32 | 1005.7 |
| 20260504001525 | 20 | 308 | 9.7 | 14.5 | 0.00 | 0.00 | 0.00 | 31 | 1005.7 |
| 20260504000037 | 20 | 320 | 9.7 | 16.1 | 0.00 | 0.00 | 0.00 | 31 | 1005.7 |
| 20260503234521 | 21 | 303 | 12.9 | 22.5 | 0.00 | 0.00 | 0.00 | 31 | 1006.0 |
| 20260503233024 | 21 | 319 | 11.3 | 16.1 | 0.00 | 0.00 | 0.00 | 32 | 1005.9 |
| 20260503231520 | 21 | 312 | 11.3 | 17.7 | 0.00 | 0.00 | 0.00 | 31 | 1005.9 |
| 20260503230019 | 20 | 296 | 12.9 | 25.7 | 0.00 | 0.00 | 0.00 | 32 | 1005.9 |
| 20260503224518 | 21 | 328 | 11.3 | 20.9 | 0.00 | 0.00 | 0.00 | 32 | 1005.9 |
| 20260503223016 | 21 | 311 | 11.3 | 19.3 | 0.00 | 0.00 | 0.00 | 31 | 1005.9 |
| 20260503221517 | 21 | 307 | 11.3 | 17.7 | 0.00 | 0.00 | 0.00 | 33 | 1005.8 |
| 20260503220020 | 20 | 319 | 17.7 | 27.4 | 0.00 | 0.00 | 0.00 | 34 | 1005.9 |
| 20260503214523 | 21 | 321 | 14.5 | 25.7 | 0.00 | 0.00 | 0.00 | 33 | 1006.0 |
| 20260503213012 | 21 | 331 | 17.7 | 24.1 | 0.00 | 0.00 | 0.00 | 33 | 1006.0 |
| 20260503211513 | 20 | 323 | 17.7 | 29.0 | 0.00 | 0.00 | 0.00 | 35 | 1006.2 |
| 20260503210030 | 21 | 330 | 19.3 | 25.7 | 0.00 | 0.00 | 0.00 | 35 | 1006.4 |
| 20260503204510 | 21 | 320 | 14.5 | 24.1 | 0.00 | 0.00 | 0.00 | 35 | 1006.6 |
| 20260503203013 | 20 | 327 | 17.7 | 27.4 | 0.00 | 0.00 | 0.00 | 35 | 1006.6 |
| 20260503201506 | 20 | 297 | 12.9 | 24.1 | 0.00 | 0.00 | 0.00 | 34 | 1006.7 |
| 20260503200007 | 20 | 338 | 17.7 | 29.0 | 0.00 | 0.00 | 0.00 | 33 | 1007.0 |
| 20260503194504 | 20 | 335 | 20.9 | 33.8 | 0.00 | 0.00 | 0.00 | 32 | 1007.0 |
| 20260503193002 | 20 | 337 | 19.3 | 33.8 | 0.00 | 0.00 | 0.00 | 33 | 1007.1 |
| 20260503191502 | 20 | 321 | 16.1 | 30.6 | 0.00 | 0.00 | 0.00 | 33 | 1007.1 |
| 20260503190104 | 20 | 328 | 22.5 | 40.2 | 0.00 | 0.00 | 0.00 | 34 | 1007.2 |
| 20260503184600 | 20 | 332 | 24.1 | 30.6 | 0.00 | 0.00 | 0.00 | 35 | 1007.1 |
| 20260503183106 | 20 | 342 | 25.7 | 33.8 | 0.00 | 0.00 | 0.00 | 35 | 1007.3 |
| 20260503181558 | 20 | 327 | 12.9 | 33.8 | 0.00 | 0.00 | 0.00 | 37 | 1007.5 |
| 20260503180106 | 19 | 338 | 19.3 | 33.8 | 0.00 | 0.00 | 0.00 | 38 | 1007.6 |
| 20260503174555 | 19 | 343 | 19.3 | 33.8 | 0.00 | 0.00 | 0.00 | 34 | 1007.5 |
| 20260503173142 | 19 | 347 | 22.5 | 33.8 | 0.00 | 0.00 | 0.00 | 36 | 1007.6 |
| 20260503171553 | 18 | 340 | 24.1 | 32.2 | 0.00 | 0.00 | 0.00 | 40 | 1007.6 |